Погода в Рянзе

Россия / Пензенская область     53°28′50″N   42°27′38″E
темп.,
°C
ветер,
м/с
пор.,
м/с
влажн.,
%
обл.,
%
осадки,
мм/ч
давл.,
гПа
погр.,
м
22 мая, вс
вс2200:00+7вюв2264100 0.0 100627
03:00+7вюв2366100 0.0 100461
06:00+6всв3577100 0.0 1002179
09:00+10всв5566100 0.0 1001703
12:00+12всв556292 0.3 9991291
15:00+11св776699 0.6 9991305
18:00+10св6866100 0.1 9991099
21:00+6ссв410739 0.1 1000320
23 мая, пн
пн2300:00+3с49835 0.0 1001232
03:00+1ссз37885 0.0 1002159
06:00+2ссз48745 0.0 1003315
09:00+7сз5758100 0.0 10031725
12:00+7зсз6858100 0.1 10031689
15:00+8зсз5858100 0.1 10041657
18:00+8з476814 0.1 10041061
21:00+5зюз4882100 0.1 1004146
24 мая, вт
вт2400:00+4зюз4118746 0.0 1004224
03:00+2зюз499287 0.0 1005146
06:00+5зюз5117526 0.0 1005347
09:00+10з594699 0.0 10061390
12:00+13з71043100 0.0 10062337
15:00+12зсз6949100 0.0 10072367
18:00+10зсз3665100 0.0 10081167
21:00+7ссв138897 0.9 1010128
25 мая, ср
ср2500:00+4зсз349472 0.1 101069
03:00+2ссз23945 0.1 101154
06:00+3ссз24885 0.0 1012172
09:00+8ссз346447 0.0 10121214
12:00+9сз3457100 0.3 10121403
15:00+10сз455799 0.8 10121474
18:00+9ссз467188 0.6 1013822
21:00+5ссз34905 0.7 101572
26 мая, чт
чт2600:00+3сз35911 0.0 101681
03:00+2зсз33885 0.0 101647
06:00+4зсз24805 0.0 1017143
09:00+10зсз34595 0.0 1016865
12:00+13зюз335138 0.0 10141587
15:00+15ююз454766 0.0 10131750
18:00+13ю5864100 0.0 1011458
21:00+11ююв51173100 0.0 1009294